CW2099 Weather Reports


Display with metric or nautical units.
time (UTC)temp
F
wind
direction
speed
MPH
gust
MPH
rain 1hr
in
rain 24hr
in
rain mn
in
humidity
%
barometer
mb
20260507114543 34 30 1.0 2.0 0.00 0.00 0.00 51 1012.2
20260507113042 34 30 0.0 3.0 0.00 0.00 0.00 52 1012.2
20260507111542 34 30 0.0 1.0 0.00 0.00 0.00 52 1012.0
20260507110040 34 30 0.0 1.0 0.00 0.00 0.00 51 1012.1
20260507104540 34 30 0.0 1.0 0.00 0.00 0.00 51 1012.1
20260507103039 34 30 0.0 2.0 0.00 0.00 0.00 51 1012.2
20260507101538 34 30 0.0 1.0 0.00 0.00 0.00 51 1012.1
20260507100051 34 30 0.0 1.0 0.00 0.00 0.00 51 1012.1
20260507094537 35 30 0.0 3.0 0.00 0.00 0.00 50 1012.1
20260507093036 35 30 0.0 2.0 0.00 0.00 0.00 50 1012.0
20260507091539 35 30 0.0 2.0 0.00 0.00 0.00 50 1012.2
20260507090033 35 30 0.0 3.0 0.00 0.00 0.00 50 1012.2
20260507084534 35 30 0.0 2.0 0.00 0.00 0.00 50 1012.3
20260507083029 35 30 0.0 1.0 0.00 0.00 0.00 50 1012.3
20260507081530 35 30 0.0 1.0 0.00 0.00 0.00 49 1012.3
20260507080150 35 30 0.0 3.0 0.00 0.00 0.00 49 1012.4
20260507074527 35 30 0.0 0.0 0.00 0.00 0.00 49 1012.3
20260507073030 35 30 0.0 0.0 0.00 0.00 0.00 49 1012.5
20260507071528 35 30 0.0 2.0 0.00 0.00 0.00 49 1012.6
20260507070023 36 30 0.0 1.0 0.00 0.00 0.00 48 1012.8
20260507064531 36 30 0.0 2.0 0.00 0.00 0.00 48 1013.0
20260507063019 36 30 0.0 2.0 0.00 0.00 0.00 48 1013.1
20260507061515 36 30 0.0 2.0 0.00 0.00 0.00 47 1013.2
20260507060014 36 30 0.0 4.0 0.00 0.00 0.00 47 1013.4
20260507054511 36 30 0.0 4.0 0.00 0.00 0.00 47 1013.5
20260507053009 36 82 0.0 0.0 0.00 0.00 0.00 47 1013.6
20260507051507 36 82 0.0 0.0 0.00 0.00 0.00 46 1013.7
20260507050010 36 82 0.0 0.0 0.00 0.00 0.00 46 1013.9
20260507044504 36 82 0.0 0.0 0.00 0.00 0.00 46 1013.9
20260507043004 36 82 0.0 0.0 0.00 0.00 0.00 45 1013.9
20260507041510 36 82 0.0 0.0 0.00 0.00 0.00 45 1013.8
20260507040004 36 82 0.0 0.0 0.00 0.00 0.00 44 1013.9
20260507034504 37 82 0.0 0.0 0.00 0.00 0.00 43 1013.9
20260507033003 37 82 0.0 0.0 0.00 0.00 0.00 43 1013.9
20260507031508 37 82 0.0 0.0 0.00 0.00 0.00 43 1014.1
20260507030008 37 82 0.0 0.0 0.00 0.00 0.00 43 1014.2
20260507024508 37 82 0.0 1.0 0.00 0.00 0.00 42 1014.1
20260507023002 38 82 0.0 3.0 0.00 0.00 0.00 43 1014.1
20260507021501 38 82 1.0 2.0 0.00 0.00 0.00 42 1014.0
20260507020001 38 82 0.0 1.0 0.00 0.00 0.00 41 1014.0
20260507014501 38 82 0.0 2.0 0.00 0.00 0.00 41 1013.9
20260507013000 38 82 0.0 2.0 0.00 0.00 0.00 41 1013.9
20260507011600 38 137 0.0 4.0 0.00 0.00 0.00 40 1013.9
20260507010111 38 138 0.0 3.0 0.00 0.00 0.00 39 1013.8
20260507004558 39 100 1.0 4.0 0.00 0.00 0.00 39 1013.8
20260507003057 39 115 1.0 3.0 0.00 0.00 0.00 38 1013.7
20260507001603 39 98 1.0 4.0 0.00 0.00 0.00 38 1013.6
20260507000057 40 190 1.0 5.0 0.00 0.00 0.00 36 1013.5
20260506234600 40 90 1.0 6.0 0.00 0.00 0.00 36 1013.3
20260506233059 40 13 1.0 4.0 0.00 0.00 0.00 36 1013.3
20260506231609 41 150 0.0 4.0 0.00 0.00 0.00 36 1013.2
20260506230110 41 133 0.0 4.0 0.00 0.00 0.00 36 1013.1
20260506224554 41 181 0.0 3.0 0.00 0.00 0.00 35 1013.0
20260506223053 41 134 1.0 4.0 0.00 0.00 0.00 35 1013.0
20260506221613 41 108 2.0 7.0 0.00 0.00 0.00 35 1012.8
20260506220110 41 120 1.0 6.0 0.00 0.00 0.00 34 1012.7
20260506214553 42 129 2.0 4.0 0.00 0.00 0.00 34 1012.6
20260506213106 42 144 2.0 5.0 0.00 0.00 0.00 33 1012.5
20260506211555 42 192 1.0 4.0 0.00 0.00 0.00 33 1012.5
20260506210057 43 271 1.0 7.0 0.00 0.00 0.00 32 1012.4
20260506204604 43 103 1.0 5.0 0.00 0.00 0.00 32 1012.6
20260506203052 43 178 0.0 7.0 0.00 0.00 0.00 31 1012.8
20260506201551 43 128 2.0 5.0 0.00 0.00 0.00 30 1012.6
20260506200049 43 34 1.0 5.0 0.00 0.00 0.00 31 1012.7
20260506194549 43 138 1.0 9.0 0.00 0.00 0.00 28 1012.7
20260506193048 43 15 2.0 7.0 0.00 0.00 0.00 29 1012.6
20260506191550 43 195 2.0 5.0 0.00 0.00 0.00 28 1012.5
20260506190048 44 134 2.0 7.0 0.00 0.00 0.00 27 1012.5
20260506184558 44 124 3.0 6.0 0.00 0.00 0.00 27 1012.5
20260506183042 43 127 1.0 5.0 0.00 0.00 0.00 28 1012.6
20260506181540 42 88 3.0 5.0 0.00 0.00 0.00 29 1012.6
20260506180040 41 121 1.0 4.0 0.00 0.00 0.00 31 1012.7
20260506174536 41 212 2.0 5.0 0.00 0.00 0.00 34 1012.9
20260506173039 41 132 1.0 4.0 0.00 0.00 0.00 36 1013.0
20260506171544 40 188 2.0 4.0 0.00 0.00 0.00 38 1013.2
20260506170030 40 98 1.0 4.0 0.00 0.00 0.00 37 1013.3
20260506164528 39 121 2.0 6.0 0.00 0.00 0.00 39 1013.3
20260506163027 39 68 2.0 6.0 0.00 0.00 0.00 38 1013.4
20260506161525 38 117 2.0 8.0 0.00 0.00 0.00 38 1013.5
20260506160028 39 86 2.0 6.0 0.00 0.00 0.00 39 1013.5
20260506154523 38 165 1.0 6.0 0.00 0.00 0.00 40 1013.1
20260506153020 37 112 1.0 5.0 0.00 0.00 0.00 40 1013.3
20260506151523 37 59 2.0 8.0 0.00 0.00 0.00 40 1013.0
20260506150016 37 130 1.0 5.0 0.00 0.00 0.00 42 1013.1
20260506144514 37 132 2.0 4.0 0.00 0.00 0.00 43 1013.0
20260506143012 36 101 0.0 4.0 0.00 0.00 0.00 45 1013.0
20260506141511 36 136 1.0 4.0 0.00 0.00 0.00 45 1012.9
20260506140017 36 63 2.0 6.0 0.00 0.00 0.00 45 1013.0
20260506134510 35 107 0.0 3.0 0.00 0.00 0.00 46 1012.9
20260506133006 35 126 1.0 4.0 0.00 0.00 0.00 47 1012.8
20260506131507 35 29 0.0 3.0 0.00 0.00 0.00 48 1012.6
20260506130005 34 72 0.0 2.0 0.00 0.00 0.00 49 1012.8
20260506124506 34 68 0.0 3.0 0.00 0.00 0.00 49 1012.8
20260506123002 34 44 0.0 3.0 0.00 0.00 0.00 50 1012.6
20260506121601 33 161 0.0 2.0 0.00 0.00 0.00 50 1012.4